Starlink 32743

operational
NORAD ID: 62480 Int'l Des: 2024-254 Owner: SPXS Country: US Constellation: starlink
LEOCIRCULAR

About Starlink 32743

Description loading...

Live Position

Loading 3D Globe...

Upcoming Passes

Altitude History

Altitude vs Time

uPlot chart will show altitude changes over time

Two-Line Element Set

1 62480U 24254U 25300.72688786 .00039460 00000-0 14345-2 0 9990
2 62480 43.0005 46.7912 0001145 259.4319 100.6403 15.27609448 47323
Epoch: Oct 27, 2025 • Age: 18 hours

Current Status

Altitude 483.7 km
Velocity 7.62 km/s
Sub-Earth Point -8.03°S, 20.99°E
Launch Date Dec 31, 2024
Age 0.8 years
Type internet

Technical Details

Classification Payload
Mass 730.00 kg
Dry Mass 700.00 kg
Total Mass 730.00 kg
Length 0.30 m
Diameter 4.10 m
Span 29.00 m
Shape Box + pan
Manufacturer SPXS
Bus Type Starlink V2M
Phase Status In Orbit
Owner/State SPXS/US

Large Constellations

Loading constellations...